Weather in Maloye Karlino

Russia / Saint-Petersburg and Leningrad Oblast     59°43′26″N   30°16′00″E
temp.,
°C
wind,
m/s
gust,
m/s
humid.,
%
clouds,
%
prec.,
mm/h
press.,
hPa
HPBL,
m
20 april, tue
tue2000:00+4e376817 0.0 1026131
03:00+3ese3567100 0.0 1025101
06:00+2e3671100 0.0 1024128
09:00+6ese476257 0.0 1023427
12:00+10ese67415 0.0 10221674
15:00+9se664169 0.0 10201812
18:00+10ese464085 0.0 10182031
21:00+6se38665 0.0 1017180
21 april, wed
wed2100:00+4se358013 0.0 1016103
03:00+3ese238644 0.0 101449
06:00+3ese239193 0.0 101278
09:00+5e3381100 0.0 1010660
12:00+6nne3374100 0.0 1007934
15:00+6ne4477100 0.1 1006721
18:00+4ne2392100 0.1 1005345
21:00+3nne118798 0.1 1005259
22 april, thu
thu2200:00+3s228956 0.0 100541
03:00+1s349611 0.0 100584
06:00+2sse369453 0.0 1005106
09:00+7s46742 0.0 1005393
12:00+12sw45475 0.0 10051376
15:00+14ssw463994 0.0 10052400
18:00+14s464499 0.0 1005763
21:00+9s6127193 0.4 1005378
23 april, fri
fri2300:00+7ssw3783100 0.6 1007601
03:00+5s3783100 0.6 1007256
06:00+4sse2689100 0.0 1007177
09:00+6s4770100 0.0 1007849
12:00+7s5752100 0.0 10071278
15:00+10s6936100 0.0 10072457
18:00+9sw584688 0.1 10081752
21:00+5s226336 0.1 100927
24 april, sat
sat2400:00+3s37725 0.0 1009137
03:00+1s36812 0.0 1008140
06:000s2489100 0.0 1008108
09:00+4s34675 0.0 1008617
12:00+8s354594 0.0 10071792
15:00+9s354095 0.1 10072074
18:00+9ssw234080 0.1 10071781
21:00+4sw116573 0.4 100723